Date,TemperatureHighF,TemperatureAvgF,TemperatureLowF,DewpointHighF,DewpointAvgF,DewpointLowF,HumidityHigh,HumidityAvg,HumidityLow,PressureMaxIn,PressureMinIn,WindSpeedMaxMPH,WindSpeedAvgMPH,GustSpeedMaxMPH,PrecipitationSumIn
2013-10-1,72.9,61.2,50.2,56.0,51.1,47.0,91,71,49,30.01,29.91,9,2,14,0.00
2013-10-2,77.0,61.1,50.1,52.0,49.0,46.0,90,68,35,30.00,29.93,11,2,16,0.00
2013-10-3,73.3,61.0,46.3,48.0,36.8,28.0,87,48,19,30.07,29.94,14,4,24,0.00
2013-10-4,79.2,68.2,56.0,36.0,30.2,27.0,48,25,16,30.10,29.98,22,6,28,0.00
2013-10-5,83.7,64.9,48.0,38.0,33.8,25.0,64,36,13,30.21,30.10,7,2,11,0.00
2013-10-6,83.1,64.1,47.7,43.0,38.6,35.0,69,43,19,30.14,30.00,9,2,10,0.00
2013-10-7,83.8,65.4,51.2,51.0,38.7,26.0,74,44,13,30.00,29.86,10,2,13,0.00
2013-10-8,75.7,60.9,48.2,49.0,45.3,39.0,85,60,30,29.90,29.72,10,3,15,0.00
2013-10-9,69.0,57.6,48.4,49.0,45.9,42.0,91,68,41,29.76,29.63,13,3,17,0.00
2013-10-10,73.7,59.4,48.3,49.0,44.1,41.0,80,60,32,30.00,29.76,8,2,13,0.00
2013-10-11,72.0,57.6,48.0,52.0,48.1,44.0,93,73,45,30.08,29.96,8,3,13,0.00
2013-10-12,72.1,56.0,44.3,49.0,46.0,42.0,91,72,39,30.01,29.91,10,3,17,0.00
2013-10-13,73.5,58.6,46.0,51.0,44.2,38.0,93,64,28,30.07,29.93,9,3,15,0.00
2013-10-14,76.9,59.6,45.2,44.0,40.3,35.0,84,54,22,30.14,30.00,8,2,13,0.00
2013-10-15,79.4,61.2,45.2,40.0,36.7,30.0,75,46,17,30.05,29.95,10,2,14,0.00
2013-10-16,81.1,62.3,46.7,40.0,37.7,35.0,71,45,21,30.10,30.00,7,2,11,0.00
2013-10-17,81.7,62.7,47.4,41.0,36.7,31.0,72,43,17,30.09,29.95,10,2,11,0.00
2013-10-18,81.6,62.5,47.0,44.0,38.7,35.0,68,46,22,30.06,29.96,8,2,9,0.00
2013-10-19,83.1,63.1,47.2,45.0,42.3,40.0,81,51,23,30.08,29.98,6,1,10,0.00
2013-10-20,83.5,63.2,46.9,50.0,44.8,42.0,82,55,27,30.02,29.89,7,2,12,0.00
2013-10-21,80.1,61.5,48.4,53.0,48.7,46.0,92,66,34,30.00,29.89,6,2,9,0.00
2013-10-22,81.1,61.4,47.1,55.0,49.4,44.0,91,68,33,30.02,29.89,5,2,9,0.00
2013-10-23,78.8,57.5,46.8,55.0,49.4,44.0,94,77,43,29.97,29.87,11,3,17,0.00
2013-10-24,60.7,54.0,50.6,50.0,49.0,48.0,94,83,67,30.11,29.97,11,4,17,0.00
2013-10-25,74.0,58.7,49.6,52.0,49.0,47.0,92,73,41,30.18,30.07,8,2,11,0.00
2013-10-26,79.3,60.3,45.9,50.0,46.3,42.0,92,65,31,30.16,30.01,7,2,11,0.00
2013-10-27,57.4,52.9,47.7,50.0,47.8,45.0,95,83,72,30.02,29.67,21,6,32,0.00
2013-10-28,62.0,53.1,45.7,49.0,46.3,43.0,92,79,54,29.86,29.68,15,3,18,0.00
2013-10-29,63.5,55.6,47.2,50.0,47.0,44.0,88,74,51,30.06,29.86,8,2,13,0.00
2013-10-30,67.2,53.0,42.5,48.0,43.8,40.0,92,73,44,30.16,30.06,5,1,11,0.00
2013-10-31,73.0,55.9,42.6,46.0,43.2,40.0,91,67,33,30.20,30.07,9,1,11,0.00